VLG78AY LEBL-LEZL

Flight info

Callsign VLG78AY
Flight time 1h 28m
Altitude 31000
Route LOTOS DCT TORDU DCT DIKUT DCT SOPET DCT VLC DCT SERRA DCT ASTRO DCT POBOS DCT XEBAR DCT YES DCT BLN
Aircraft A320/M-SDE3FGHIRWY/LB1

Departure

Time 2026-05-01 13:48
Airport Josep Tarradellas Barcelona-El Prat Airport (LEBL)

Arrival

Time 2026-05-01 15:17
Airport Seville Airport (LEZL)
Time Latitude Longitude Altitude Speed Heading
2026-05-01 13:34 41.28963 2.07847 19 ft 0 kts 336°
2026-05-01 13:41 41.28962 2.07847 19 ft 0 kts 336°
2026-05-01 13:41 41.28942 2.07859 20 ft 3 kts 336°
2026-05-01 13:41 41.28917 2.07873 19 ft 2 kts 336°
2026-05-01 13:42 41.28899 2.07886 21 ft 3 kts 302°
2026-05-01 13:42 41.28896 2.07915 20 ft 3 kts 246°
2026-05-01 13:42 41.28905 2.07941 21 ft 0 kts 245°
2026-05-01 13:44 41.28902 2.07932 22 ft 4 kts 245°
2026-05-01 13:44 41.28890 2.07898 22 ft 0 kts 245°
2026-05-01 13:44 41.28857 2.07857 18 ft 13 kts 195°
2026-05-01 13:45 41.28765 2.07899 19 ft 15 kts 156°
2026-05-01 13:45 41.28690 2.07944 16 ft 12 kts 156°
2026-05-01 13:45 41.28605 2.07968 16 ft 13 kts 211°
2026-05-01 13:45 41.28565 2.07859 17 ft 14 kts 246°
2026-05-01 13:46 41.28522 2.07731 18 ft 16 kts 245°
2026-05-01 13:46 41.28475 2.07597 16 ft 16 kts 244°
2026-05-01 13:46 41.28391 2.07547 16 ft 14 kts 197°
2026-05-01 13:46 41.28318 2.07498 17 ft 8 kts 226°
2026-05-01 13:47 41.28278 2.07436 17 ft 10 kts 195°
2026-05-01 13:47 41.28246 2.07490 19 ft 8 kts 78°
2026-05-01 13:47 41.28277 2.07570 21 ft 17 kts 64°
2026-05-01 13:47 41.28420 2.07993 21 ft 81 kts 66°
2026-05-01 13:48 41.28723 2.08887 21 ft 129 kts 67°
2026-05-01 13:48 41.29158 2.10076 290 ft 146 kts 69°
2026-05-01 13:48 41.29506 2.11343 934 ft 146 kts 82°
2026-05-01 13:48 41.29359 2.12688 1573 ft 150 kts 106°
2026-05-01 13:49 41.29040 2.13979 2189 ft 148 kts 101°
2026-05-01 13:49 41.28863 2.15385 2554 ft 163 kts 93°
2026-05-01 13:49 41.28742 2.16994 2778 ft 186 kts 92°
2026-05-01 13:49 41.28612 2.18760 3249 ft 193 kts 94°
2026-05-01 13:50 41.28470 2.20548 3871 ft 195 kts 95°
2026-05-01 13:50 41.28318 2.22354 4540 ft 200 kts 96°
2026-05-01 13:50 41.28155 2.24220 5251 ft 204 kts 97°
2026-05-01 13:50 41.27834 2.26103 5631 ft 225 kts 116°
2026-05-01 13:51 41.26746 2.27751 5970 ft 251 kts 139°
2026-05-01 13:51 41.25369 2.29290 6501 ft 265 kts 139°
2026-05-01 13:51 41.24482 2.30315 6994 ft 268 kts 138°
2026-05-01 13:52 41.23072 2.31967 7863 ft 268 kts 137°
2026-05-01 13:52 41.21670 2.33614 8672 ft 271 kts 138°
2026-05-01 13:52 41.20269 2.35260 9495 ft 273 kts 138°
2026-05-01 13:52 41.18841 2.36934 10297 ft 275 kts 138°
2026-05-01 13:53 41.17358 2.38667 10667 ft 293 kts 139°
2026-05-01 13:53 41.14062 2.42496 11188 ft 330 kts 139°
2026-05-01 13:53 41.12299 2.44531 11696 ft 339 kts 139°
2026-05-01 13:54 41.10506 2.46597 12314 ft 344 kts 139°
2026-05-01 13:54 41.08682 2.48706 12869 ft 350 kts 139°
2026-05-01 13:54 41.06834 2.50849 13469 ft 355 kts 139°
2026-05-01 13:54 41.04986 2.52988 14082 ft 358 kts 139°
2026-05-01 13:55 41.03018 2.55055 14636 ft 361 kts 149°
2026-05-01 13:55 41.00711 2.56339 15165 ft 363 kts 167°
2026-05-01 13:55 40.98215 2.56627 15659 ft 367 kts 185°
2026-05-01 13:55 40.95723 2.55875 16169 ft 370 kts 202°
2026-05-01 13:56 40.93505 2.54153 16707 ft 372 kts 220°
2026-05-01 13:56 40.91777 2.51597 17244 ft 375 kts 238°
2026-05-01 13:56 40.90706 2.48437 17788 ft 378 kts 252°
2026-05-01 13:56 40.89932 2.45112 18352 ft 380 kts 253°
2026-05-01 13:57 40.89162 2.41793 18871 ft 382 kts 253°
2026-05-01 13:57 40.88367 2.38372 19368 ft 386 kts 253°
2026-05-01 13:57 40.87582 2.35003 19854 ft 388 kts 253°
2026-05-01 13:57 40.86779 2.31586 20372 ft 390 kts 252°
2026-05-01 13:58 40.85968 2.28147 20902 ft 391 kts 251°
2026-05-01 13:58 40.85164 2.24751 21428 ft 392 kts 251°
2026-05-01 13:58 40.84344 2.21289 21879 ft 396 kts 252°
2026-05-01 13:58 40.83521 2.17815 22337 ft 397 kts 252°
2026-05-01 13:59 40.82693 2.14320 22797 ft 399 kts 251°
2026-05-01 13:59 40.81857 2.10796 23230 ft 401 kts 252°
2026-05-01 13:59 40.81025 2.07302 23628 ft 405 kts 251°
2026-05-01 13:59 40.80175 2.03746 24022 ft 407 kts 251°
2026-05-01 14:00 40.79319 2.00176 24428 ft 408 kts 251°
2026-05-01 14:00 40.78459 1.96578 24789 ft 410 kts 252°
2026-05-01 14:00 40.77598 1.92979 25132 ft 413 kts 251°
2026-05-01 14:00 40.76730 1.89358 25509 ft 414 kts 251°
2026-05-01 14:01 40.75860 1.85723 25883 ft 415 kts 251°
2026-05-01 14:01 40.74996 1.82124 26209 ft 418 kts 251°
2026-05-01 14:01 40.74114 1.78460 26560 ft 420 kts 251°
2026-05-01 14:01 40.73226 1.74781 26924 ft 421 kts 251°
2026-05-01 14:02 40.72332 1.71085 27270 ft 423 kts 251°
2026-05-01 14:02 40.71433 1.67371 27595 ft 426 kts 251°
2026-05-01 14:02 40.70539 1.63668 27961 ft 427 kts 251°
2026-05-01 14:02 40.69639 1.59930 28306 ft 429 kts 251°
2026-05-01 14:03 40.68732 1.56169 28641 ft 432 kts 251°
2026-05-01 14:03 40.67814 1.52380 28977 ft 434 kts 251°
2026-05-01 14:03 40.66892 1.48605 29444 ft 432 kts 251°
2026-05-01 14:03 40.65968 1.44835 29988 ft 430 kts 250°
2026-05-01 14:04 40.65050 1.41102 30476 ft 428 kts 250°
2026-05-01 14:04 40.64147 1.37428 30894 ft 426 kts 250°
2026-05-01 14:04 40.63234 1.33710 31150 ft 426 kts 250°
2026-05-01 14:04 40.62619 1.31203 31193 ft 426 kts 250°
2026-05-01 14:05 40.60495 1.22557 31209 ft 426 kts 250°
2026-05-01 14:05 40.58667 1.15179 31215 ft 426 kts 250°
2026-05-01 14:06 40.56814 1.07737 31216 ft 428 kts 251°
2026-05-01 14:06 40.54568 1.00508 31211 ft 427 kts 238°
2026-05-01 14:07 40.50886 0.94460 31209 ft 426 kts 227°
2026-05-01 14:08 40.44854 0.85866 31212 ft 426 kts 227°
2026-05-01 14:08 40.40866 0.80176 31218 ft 426 kts 227°
2026-05-01 14:09 40.36845 0.74464 31215 ft 426 kts 227°
2026-05-01 14:09 40.32814 0.68760 31206 ft 427 kts 227°
2026-05-01 14:10 40.28777 0.63055 31207 ft 427 kts 227°
2026-05-01 14:10 40.24741 0.57349 31202 ft 427 kts 227°
2026-05-01 14:11 40.20695 0.51646 31205 ft 427 kts 226°
2026-05-01 14:11 40.14644 0.43140 31218 ft 428 kts 226°
2026-05-01 14:12 40.10596 0.37461 31233 ft 428 kts 227°
2026-05-01 14:12 40.06534 0.31774 31227 ft 427 kts 227°
2026-05-01 14:13 40.03138 0.27028 31216 ft 427 kts 227°
2026-05-01 14:13 39.98421 0.20445 31207 ft 427 kts 227°
2026-05-01 14:14 39.94350 0.14778 31212 ft 428 kts 227°
2026-05-01 14:14 39.90278 0.09115 31208 ft 428 kts 227°
2026-05-01 14:15 39.86393 0.03707 31212 ft 428 kts 227°
2026-05-01 14:15 39.82476 -0.01735 31214 ft 428 kts 228°
2026-05-01 14:16 39.78390 -0.07386 31199 ft 429 kts 229°
2026-05-01 14:16 39.74641 -0.12554 31205 ft 430 kts 229°
2026-05-01 14:17 39.70597 -0.18126 31209 ft 430 kts 229°
2026-05-01 14:17 39.66511 -0.23743 31224 ft 430 kts 229°
2026-05-01 14:18 39.62495 -0.29248 31225 ft 430 kts 229°
2026-05-01 14:18 39.60341 -0.32196 31232 ft 430 kts 229°
2026-05-01 14:19 39.55518 -0.38803 31226 ft 430 kts 230°
2026-05-01 14:19 39.51393 -0.44445 31224 ft 431 kts 229°
2026-05-01 14:20 39.46308 -0.52141 31233 ft 428 kts 236°
2026-05-01 14:21 39.42128 -0.59296 31231 ft 428 kts 236°
2026-05-01 14:21 39.39135 -0.64414 31229 ft 428 kts 236°
2026-05-01 14:22 39.33775 -0.73540 31215 ft 428 kts 236°
2026-05-01 14:22 39.30167 -0.79655 31219 ft 428 kts 235°
2026-05-01 14:23 39.26555 -0.85758 31227 ft 428 kts 235°
2026-05-01 14:23 39.22940 -0.91857 31230 ft 427 kts 235°
2026-05-01 14:24 39.19480 -0.97695 31229 ft 427 kts 235°
2026-05-01 14:24 39.15873 -1.03776 31230 ft 427 kts 235°
2026-05-01 14:25 39.12261 -1.09845 31227 ft 427 kts 235°
2026-05-01 14:25 39.08646 -1.15913 31215 ft 427 kts 234°
2026-05-01 14:26 39.03222 -1.24996 31223 ft 427 kts 234°
2026-05-01 14:27 38.99475 -1.31246 31223 ft 426 kts 234°
2026-05-01 14:27 38.95848 -1.37282 31223 ft 426 kts 234°
2026-05-01 14:28 38.90404 -1.46328 31218 ft 426 kts 234°
2026-05-01 14:28 38.86778 -1.52344 31208 ft 426 kts 234°
2026-05-01 14:29 38.83143 -1.58365 31209 ft 426 kts 235°
2026-05-01 14:30 38.75948 -1.70248 31215 ft 425 kts 235°
2026-05-01 14:31 38.70498 -1.79222 31217 ft 425 kts 235°
2026-05-01 14:31 38.66852 -1.85204 31209 ft 425 kts 234°
2026-05-01 14:32 38.63216 -1.91160 31191 ft 425 kts 236°
2026-05-01 14:32 38.59564 -1.97113 31194 ft 425 kts 235°
2026-05-01 14:33 38.55924 -2.03051 31196 ft 424 kts 236°
2026-05-01 14:33 38.52284 -2.08987 31198 ft 424 kts 235°
2026-05-01 14:34 38.48635 -2.14922 31189 ft 424 kts 235°
2026-05-01 14:34 38.45004 -2.20815 31193 ft 424 kts 235°
2026-05-01 14:35 38.41330 -2.26772 31196 ft 425 kts 235°
2026-05-01 14:35 38.37762 -2.32694 31174 ft 421 kts 240°
2026-05-01 14:35 38.36322 -2.35919 29751 ft 422 kts 249°
2026-05-01 14:36 38.35365 -2.39501 27721 ft 433 kts 259°
2026-05-01 14:36 38.34810 -2.43307 25766 ft 442 kts 261°
2026-05-01 14:36 38.34249 -2.47207 23995 ft 451 kts 260°
2026-05-01 14:36 38.33639 -2.51096 22557 ft 444 kts 259°
2026-05-01 14:37 38.33013 -2.54908 21174 ft 435 kts 258°
2026-05-01 14:37 38.32391 -2.58640 19865 ft 427 kts 258°
2026-05-01 14:37 38.31780 -2.62313 18609 ft 419 kts 258°
2026-05-01 14:37 38.31192 -2.65908 17243 ft 412 kts 259°
2026-05-01 14:38 38.30620 -2.69447 15919 ft 405 kts 259°
2026-05-01 14:38 38.30064 -2.72918 15146 ft 391 kts 259°
2026-05-01 14:38 38.29533 -2.76227 15140 ft 371 kts 259°
2026-05-01 14:38 38.29029 -2.79354 15143 ft 352 kts 259°
2026-05-01 14:39 38.28544 -2.82356 15144 ft 343 kts 259°
2026-05-01 14:39 38.28062 -2.85330 15144 ft 341 kts 259°
2026-05-01 14:39 38.27581 -2.88291 15143 ft 341 kts 259°
2026-05-01 14:39 38.27097 -2.91247 15136 ft 341 kts 258°
2026-05-01 14:40 38.26613 -2.94204 15136 ft 341 kts 258°
2026-05-01 14:40 38.26129 -2.97157 15135 ft 341 kts 258°
2026-05-01 14:40 38.25650 -3.00075 15136 ft 341 kts 258°
2026-05-01 14:40 38.25162 -3.03068 15136 ft 342 kts 259°
2026-05-01 14:41 38.24680 -3.06027 15130 ft 341 kts 258°
2026-05-01 14:41 38.24201 -3.08951 15133 ft 342 kts 258°
2026-05-01 14:41 38.23714 -3.11913 15133 ft 342 kts 258°
2026-05-01 14:41 38.23224 -3.14880 15133 ft 342 kts 258°
2026-05-01 14:42 38.22735 -3.17838 15134 ft 342 kts 258°
2026-05-01 14:42 38.22246 -3.20794 15128 ft 342 kts 258°
2026-05-01 14:42 38.21755 -3.23746 14881 ft 339 kts 258°
2026-05-01 14:42 38.21264 -3.26682 14423 ft 338 kts 258°
2026-05-01 14:43 38.20776 -3.29595 13992 ft 337 kts 258°
2026-05-01 14:43 38.20290 -3.32495 13534 ft 335 kts 258°
2026-05-01 14:43 38.19808 -3.35388 13088 ft 333 kts 258°
2026-05-01 14:43 38.19327 -3.38269 12647 ft 331 kts 258°
2026-05-01 14:44 38.18853 -3.41122 12201 ft 330 kts 258°
2026-05-01 14:44 38.17903 -3.46785 11393 ft 325 kts 257°
2026-05-01 14:44 38.17431 -3.49577 11002 ft 322 kts 257°
2026-05-01 14:45 38.17053 -3.51804 10659 ft 322 kts 256°
2026-05-01 14:45 38.16121 -3.57335 10110 ft 315 kts 257°
2026-05-01 14:45 38.15676 -3.59983 10116 ft 300 kts 257°
2026-05-01 14:46 38.15253 -3.62493 10123 ft 286 kts 256°
2026-05-01 14:46 38.14285 -3.67328 10125 ft 283 kts 253°
2026-05-01 14:46 38.13764 -3.69739 10122 ft 283 kts 253°
2026-05-01 14:47 38.13242 -3.72146 10124 ft 283 kts 253°
2026-05-01 14:47 38.12720 -3.74568 10121 ft 284 kts 253°
2026-05-01 14:47 38.12199 -3.76993 10122 ft 285 kts 253°
2026-05-01 14:48 38.11163 -3.81834 10126 ft 285 kts 253°
2026-05-01 14:48 38.10648 -3.84257 10118 ft 283 kts 254°
2026-05-01 14:48 38.09632 -3.89012 10125 ft 281 kts 254°
2026-05-01 14:49 38.08608 -3.93801 10124 ft 281 kts 253°
2026-05-01 14:49 38.08270 -3.95400 10125 ft 282 kts 253°
2026-05-01 14:50 38.07682 -3.97645 10134 ft 284 kts 251°
2026-05-01 14:50 38.06314 -4.04063 10119 ft 282 kts 255°
2026-05-01 14:51 38.05840 -4.06474 10123 ft 281 kts 254°
2026-05-01 14:51 38.04855 -4.11291 10126 ft 283 kts 253°
2026-05-01 14:52 38.03830 -4.16113 10124 ft 283 kts 253°
2026-05-01 14:52 38.03313 -4.18515 10123 ft 281 kts 253°
2026-05-01 14:52 38.02279 -4.23299 10124 ft 280 kts 253°
2026-05-01 14:53 38.01759 -4.25695 10126 ft 282 kts 253°
2026-05-01 14:53 38.01416 -4.27283 10124 ft 281 kts 253°
2026-05-01 14:53 38.00727 -4.30463 10124 ft 283 kts 253°
2026-05-01 14:53 38.00208 -4.32868 10063 ft 280 kts 253°
2026-05-01 14:54 37.99695 -4.35233 9498 ft 278 kts 253°
2026-05-01 14:54 37.99180 -4.37585 8917 ft 276 kts 252°
2026-05-01 14:54 37.98668 -4.39925 8347 ft 275 kts 253°
2026-05-01 14:54 37.98325 -4.41499 8000 ft 273 kts 252°
2026-05-01 14:55 37.97821 -4.43805 7452 ft 271 kts 252°
2026-05-01 14:55 37.97525 -4.45153 7141 ft 271 kts 252°
2026-05-01 14:55 37.97024 -4.47374 6654 ft 269 kts 252°
2026-05-01 14:55 37.96530 -4.49620 6131 ft 267 kts 252°
2026-05-01 14:56 37.96043 -4.51873 5676 ft 262 kts 253°
2026-05-01 14:56 37.95565 -4.54084 5216 ft 258 kts 253°
2026-05-01 14:56 37.95092 -4.56262 5114 ft 258 kts 253°
2026-05-01 14:56 37.94607 -4.58476 5122 ft 261 kts 253°
2026-05-01 14:57 37.94120 -4.60695 5127 ft 265 kts 253°
2026-05-01 14:57 37.93141 -4.65159 5126 ft 262 kts 252°
2026-05-01 14:57 37.92654 -4.67379 5120 ft 260 kts 253°
2026-05-01 14:58 37.92167 -4.69591 5119 ft 261 kts 253°
2026-05-01 14:58 37.91676 -4.71814 5112 ft 262 kts 253°
2026-05-01 14:58 37.91185 -4.74030 5112 ft 263 kts 253°
2026-05-01 14:58 37.90690 -4.76261 5115 ft 263 kts 252°
2026-05-01 14:59 37.90196 -4.78485 5116 ft 261 kts 253°
2026-05-01 14:59 37.89702 -4.80710 5106 ft 261 kts 253°
2026-05-01 14:59 37.89210 -4.82921 5110 ft 261 kts 252°
2026-05-01 14:59 37.88719 -4.85124 5114 ft 261 kts 253°
2026-05-01 15:00 37.87736 -4.89552 5114 ft 263 kts 253°
2026-05-01 15:00 37.87247 -4.91751 5111 ft 262 kts 252°
2026-05-01 15:00 37.86753 -4.93978 5113 ft 261 kts 253°
2026-05-01 15:01 37.86260 -4.96191 5115 ft 261 kts 252°
2026-05-01 15:01 37.85767 -4.98394 5110 ft 260 kts 252°
2026-05-01 15:01 37.85271 -5.00601 5120 ft 263 kts 253°
2026-05-01 15:01 37.84773 -5.02814 5115 ft 262 kts 252°
2026-05-01 15:02 37.84268 -5.05059 5123 ft 268 kts 251°
2026-05-01 15:02 37.83931 -5.06559 5107 ft 268 kts 252°
2026-05-01 15:02 37.83246 -5.09609 5107 ft 269 kts 252°
2026-05-01 15:02 37.82735 -5.11883 5109 ft 269 kts 252°
2026-05-01 15:03 37.82230 -5.14124 5122 ft 269 kts 252°
2026-05-01 15:03 37.81720 -5.16394 5113 ft 268 kts 251°
2026-05-01 15:03 37.81202 -5.18692 5112 ft 268 kts 252°
2026-05-01 15:03 37.80696 -5.20928 5125 ft 268 kts 252°
2026-05-01 15:04 37.80184 -5.23193 5117 ft 268 kts 252°
2026-05-01 15:04 37.79674 -5.25459 5127 ft 268 kts 252°
2026-05-01 15:04 37.79159 -5.27730 5120 ft 269 kts 252°
2026-05-01 15:04 37.78642 -5.30002 5103 ft 268 kts 251°
2026-05-01 15:05 37.78130 -5.32254 4873 ft 266 kts 251°
2026-05-01 15:05 37.77617 -5.34507 4594 ft 266 kts 251°
2026-05-01 15:05 37.77057 -5.36704 4456 ft 260 kts 245°
2026-05-01 15:05 37.76227 -5.38708 4225 ft 256 kts 235°
2026-05-01 15:06 37.75137 -5.40460 4027 ft 252 kts 225°
2026-05-01 15:06 37.73849 -5.41964 3732 ft 252 kts 220°
2026-05-01 15:06 37.72532 -5.43432 3501 ft 252 kts 221°
2026-05-01 15:06 37.71221 -5.44896 3217 ft 252 kts 221°
2026-05-01 15:07 37.69909 -5.46362 3024 ft 251 kts 222°
2026-05-01 15:07 37.68614 -5.47814 2992 ft 250 kts 221°
2026-05-01 15:07 37.67313 -5.49272 2987 ft 248 kts 221°
2026-05-01 15:07 37.65995 -5.50693 2992 ft 252 kts 216°
2026-05-01 15:08 37.64481 -5.51753 2988 ft 252 kts 201°
2026-05-01 15:08 37.62793 -5.52422 2990 ft 254 kts 197°
2026-05-01 15:08 37.61098 -5.53045 2995 ft 254 kts 197°
2026-05-01 15:08 37.59408 -5.53671 2990 ft 253 kts 197°
2026-05-01 15:09 37.57730 -5.54296 2993 ft 251 kts 198°
2026-05-01 15:09 37.56040 -5.54927 2984 ft 253 kts 198°
2026-05-01 15:09 37.54357 -5.55556 2982 ft 255 kts 198°
2026-05-01 15:09 37.52657 -5.56191 2987 ft 255 kts 197°
2026-05-01 15:10 37.50947 -5.56829 2997 ft 257 kts 197°
2026-05-01 15:10 37.47523 -5.58102 2988 ft 255 kts 199°
2026-05-01 15:10 37.45862 -5.58718 2989 ft 245 kts 199°
2026-05-01 15:11 37.44308 -5.59462 2978 ft 231 kts 211°
2026-05-01 15:11 37.42285 -5.62231 2984 ft 203 kts 245°
2026-05-01 15:11 37.41901 -5.63844 2994 ft 186 kts 260°
2026-05-01 15:12 37.41840 -5.65395 2982 ft 168 kts 268°
2026-05-01 15:12 37.41840 -5.68134 2969 ft 148 kts 267°
2026-05-01 15:12 37.41838 -5.69427 2834 ft 146 kts 267°
2026-05-01 15:13 37.41833 -5.73131 2311 ft 137 kts 264°
2026-05-01 15:14 37.41829 -5.75405 1961 ft 137 kts 266°
2026-05-01 15:14 37.41826 -5.76638 1775 ft 143 kts 268°
2026-05-01 15:14 37.41821 -5.79097 1395 ft 140 kts 268°
2026-05-01 15:15 37.41798 -5.81556 989 ft 140 kts 268°
2026-05-01 15:15 37.41776 -5.83948 682 ft 142 kts 280°
2026-05-01 15:16 37.41778 -5.86447 336 ft 144 kts 281°
2026-05-01 15:16 37.41795 -5.88752 104 ft 88 kts 270°
2026-05-01 15:17 37.41892 -5.89291 99 ft 13 kts 330°
2026-05-01 15:18 37.42033 -5.89416 98 ft 14 kts 309°
2026-05-01 15:18 37.42100 -5.89507 98 ft 16 kts 314°
2026-05-01 15:19 37.42318 -5.89760 94 ft 10 kts 317°
2026-05-01 15:19 37.42340 -5.89789 94 ft 0 kts 315°